Regional Weather Roundup
Issued by NWS Albany, NY

Home | Current Version | Previous Version | Graphics & Text | Print | Product List | Glossary Off
Versions: 1 2 3 4 5 6 7 8 9 10 11 12 13 14 15 16 17 18 19 20 21

000
ASUS41 KALY 300810
RWRALY

NEW YORK STATE HOURLY WEATHER ROUNDUP
NATIONAL WEATHER SERVICE ALBANY NY
400 AM EDT THU OCT 30 2014

NOTE: "FAIR" INDICATES FEW OR NO CLOUDS BELOW 12,000 FEET WITH NO
SIGNIFICANT WEATHER AND/OR NO OBSTRUCTIONS TO VISIBILITY.

NYZ032-033-038>043-046>054-057>066-NYZ062>081-300900-
EAST


CITY           SKY/WX    TMP DP  RH WIND       PRES   REMARKS
ALBANY         CLOUDY    49  40  71 W9        29.92F
GLENS FALLS    CLOUDY    48  39  71 W6        29.89S
POUGHKEEPSIE   CLOUDY    39  37  92 CALM      29.93S
NEWBURGH       CLEAR     43  43 100 CALM      29.95S FOG
MONTGOMERY     CLOUDY    38  38 100 CALM      29.94S FOG
WHITE PLAINS   PTCLDY    43  42  97 CALM      29.93S FOG
ISLIP          CLEAR     45  44  97 CALM      29.92S
NEW YORK CITY  PTCLDY    52  45  77 CALM      29.94S
CENTRAL PARK   CLEAR     49  44  83 CALM      29.96F
$$

NYZ005>009-017-018-044>046-055-056-300900-
CENTRAL


CITY           SKY/WX    TMP DP  RH WIND       PRES   REMARKS
FULTON         LGT RAIN  45  41  86 CALM      29.95S
SYRACUSE       LGT RAIN  47  40  76 W10       29.96R
ROME           CLOUDY    45  40  82 W10       29.95R
ELMIRA         CLOUDY    45  40  82 W5        29.97S
BINGHAMTON     CLOUDY    43  36  76 W7        29.94S
MONTICELLO     CLOUDY    43  43 100 W5        29.94F
$$

NYZ026>034-041>043-300900-
NORTH


CITY           SKY/WX    TMP DP  RH WIND       PRES   REMARKS
WATERTOWN      CLOUDY    47  37  68 NW10      29.93S
FORT DRUM      NOT AVBL
MASSENA        CLOUDY    46  38  73 W8        29.90R
SARANAC LAKE   CLOUDY    41  36  82 SW6       29.85S
PLATTSBURGH    CLOUDY    48  39  71 W5        29.86R
$$

NYZ001>004-010>016-019>021-300900-
WEST


CITY           SKY/WX    TMP DP  RH WIND       PRES   REMARKS
NIAGARA FALLS  CLEAR     40  36  86 MISG      30.00R
BUFFALO        PTCLDY    40  35  83 SW5       30.00S
DUNKIRK        CLOUDY    46  38  73 NW7       30.02R
JAMESTOWN      MOCLDY    39  37  93 NW7       30.00S WCI  34
WELLSVILLE     CLOUDY    40  37  89 NW8       29.98S WCI  34
ROCHESTER      MOCLDY    44  37  76 W9        29.98S
PENN YAN       CLOUDY    43  38  82 SW5       29.98R
$$

             KEY
       WCI = WIND CHILL INDEX
       VSB = VISIBILITY
       HX  = HEAT INDEX
$$



USA.gov is the U.S. government's official web portal to all federal, state and local government web resources and services.